Wind_Speed
5 6 5 6 6 7 8 8 9 10 10 10 11 12 12 13 14 14 14 14 15 15 16 16 16 16 16 17 17 18 18 19 19 19 19 20 19 20 20 20 21 22 22 22
5 6 6 7 7 7 8 8 8 8 9 10 11 12 13 14 14 14 14 14 14 14 15 15 15 15 15 16 17 17 17 17 19 19 19 19 19 19 19 19 20 21 21 21
6 7 7 7 7 7 7 7 8 8 9 10 10 12 13 14 13 13 13 14 13 13 14 14 14 14 15 16 17 17 17 18 19 19 19 19 19 19 19 20 20 19 20 21
7 7 7 7 6 6 6 7 7 8 9 10 10 11 12 13 13 13 13 13 13 13 14 13 13 14 15 16 16 16 17 18 18 17 18 19 18 18 19 20 19 19 20 21
6 6 6 6 6 6 6 7 7 8 8 10 10 11 12 12 12 13 13 13 13 13 13 13 13 14 15 16 16 16 17 18 17 17 17 18 18 19 19 19 20 20 21 21
6 6 6 6 6 6 7 7 7 8 9 10 11 10 12 12 12 12 13 13 13 13 13 14 14 14 15 16 16 17 18 18 17 17 17 18 18 18 19 19 20 20 21 22
6 7 7 7 7 7 6 7 8 8 9 10 12 11 11 13 12 12 12 12 12 13 14 14 15 16 16 17 17 17 17 18 17 17 17 17 18 19 19 19 20 20 21 22
6 8 8 7 7 7 7 7 8 9 10 11 13 13 12 13 12 12 12 12 13 14 14 15 16 17 17 17 16 16 17 18 17 17 17 17 18 18 18 19 20 20 20 21
7 9 9 8 8 8 8 8 10 10 11 11 12 13 13 13 13 13 12 13 13 14 15 15 16 17 17 17 16 16 17 17 17 17 17 17 18 19 19 20 20 20 20 20
8 9 10 9 9 9 10 10 11 10 11 12 13 14 14 13 13 13 13 14 15 15 16 16 17 18 17 16 17 17 17 17 18 18 19 19 19 19 19 20 19 19 19 19
10 11 12 11 11 11 11 11 11 12 12 12 13 14 14 14 14 14 14 15 15 16 17 18 18 18 17 17 17 18 17 18 19 19 20 20 19 19 20 19 19 19 19 19
11 12 13 13 12 12 12 12 12 12 13 13 13 14 13 14 14 14 14 15 15 16 17 18 18 17 17 17 17 17 17 18 19 19 19 19 19 19 19 19 19 19 20 20
13 13 13 13 13 13 13 12 12 12 13 13 13 14 13 14 15 15 15 15 16 18 18 18 18 17 17 18 18 18 18 17 18 18 19 19 18 19 19 19 19 19 19 20
13 13 13 13 13 14 14 14 13 13 13 13 13 13 14 14 14 15 16 16 17 18 18 18 17 16 17 17 17 17 17 18 18 18 18 19 18 19 19 19 19 19 19 19
14 14 14 14 14 14 14 14 13 13 13 13 14 14 14 14 15 15 16 16 17 17 17 17 17 16 16 16 16 16 17 18 18 18 18 18 18 19 19 19 18 19 19 19
15 15 15 15 15 15 15 15 15 15 14 14 14 14 14 14 15 15 16 16 16 16 17 17 17 16 16 16 16 16 17 17 17 18 18 18 17 18 18 18 18 18 19 19
17 17 16 16 15 15 16 14 14 15 15 15 15 15 14 15 15 16 16 16 16 16 16 17 16 16 17 16 16 16 17 17 17 18 18 17 17 17 18 18 18 18 18 17
18 18 18 17 17 17 17 16 15 16 16 15 15 15 15 16 16 16 16 16 16 16 16 16 16 16 16 16 16 16 17 17 17 17 17 17 17 18 18 17 17 17 17 17
20 19 19 19 19 19 19 17 17 16 16 16 16 17 16 16 16 16 16 16 16 16 17 17 16 16 16 16 16 16 17 17 17 17 17 17 18 18 18 18 18 17 17 16
21 20 20 20 20 20 19 19 18 17 17 17 17 17 17 16 16 17 17 16 16 16 17 17 16 16 16 16 17 17 17 17 17 17 17 17 17 17 17 17 17 16 15 14
21 21 21 21 21 21 21 20 19 18 19 18 18 18 18 18 18 18 17 17 17 17 17 17 16 16 16 17 17 17 17 17 17 17 17 17 17 17 16 16 15 15 15 14
22 22 21 21 21 21 21 21 20 20 20 19 19 19 19 19 19 18 18 18 18 17 17 17 16 16 16 17 17 17 17 18 18 17 17 16 16 15 15 15 15 15 15 15
23 23 22 22 22 22 21 21 21 21 21 21 21 20 19 19 19 19 19 19 18 17 17 17 17 17 17 17 17 18 18 18 17 17 16 15 15 14 15 15 15 15 15 15
24 23 22 22 22 22 22 22 22 22 22 22 22 21 20 20 19 19 19 19 18 18 17 17 18 18 18 18 18 18 18 17 17 16 15 14 14 14 15 15 16 16 16 16
24 24 23 23 23 23 23 23 23 23 22 22 21 21 21 20 20 20 19 18 18 18 18 18 18 18 17 17 18 17 17 17 16 15 15 14 14 15 15 16 17 16 16 16
25 24 23 23 24 24 24 23 22 21 22 22 21 21 20 20 20 20 20 20 19 19 19 19 19 18 18 18 18 17 17 16 15 15 14 14 14 15 16 16 17 16 16 15
Wind_Direction
240 243 241 247 254 247 246 251 260 270 270 277 281 282 282 283 287 287 284 285 287 291 289 291 291 291 291 290 293 295 295 294 293 292 290 289 286 284 283 283 284 287 290 292
237 241 241 246 250 254 254 257 267 275 275 283 287 289 287 288 286 288 290 289 290 293 293 296 296 295 296 292 291 295 298 297 294 292 290 288 288 286 285 286 286 288 292 294
229 233 238 244 253 260 260 268 272 278 285 292 299 299 297 294 291 291 294 296 297 299 302 300 296 294 300 299 296 295 295 296 295 292 289 290 290 290 291 292 291 291 293 296
228 233 245 256 264 268 272 274 275 282 293 300 303 303 297 299 298 298 301 303 301 299 302 303 301 298 301 305 302 298 299 299 297 293 292 294 292 292 292 292 292 293 294 295
248 250 250 256 264 277 281 279 278 287 294 299 303 306 305 301 298 300 304 308 306 303 302 304 305 303 305 307 307 307 305 305 304 300 297 296 294 291 291 293 294 296 295 295
255 253 252 257 261 273 283 286 287 295 300 301 302 306 308 306 305 302 303 306 306 306 306 309 308 308 310 309 308 310 311 308 307 304 301 298 296 295 294 294 296 298 298 298
259 260 259 260 263 276 286 299 307 307 304 303 303 307 307 307 308 306 303 303 304 305 305 307 309 312 310 307 306 307 309 310 307 305 302 299 296 295 295 298 299 300 301 301
254 259 260 263 263 271 281 291 295 301 302 301 302 306 310 311 310 310 306 304 305 305 306 306 309 312 310 305 304 306 307 306 305 303 300 299 299 299 299 299 300 302 303 305
256 257 258 261 267 267 277 288 287 294 298 302 307 307 310 313 313 312 309 306 308 308 307 308 309 312 310 306 305 304 304 303 303 303 300 299 301 301 301 302 304 304 305 307
258 262 263 265 269 271 276 287 291 293 298 301 305 307 309 314 316 313 312 312 313 312 311 311 312 313 312 308 307 306 307 306 306 307 304 304 303 301 301 304 306 305 306 308
257 264 269 270 274 279 280 284 288 290 290 296 302 301 304 309 311 312 312 312 313 315 315 316 316 316 313 310 307 306 306 305 304 305 306 307 306 302 301 301 301 302 305 308
260 266 271 276 279 279 280 282 285 289 291 292 297 300 305 310 310 311 313 314 315 317 319 321 320 317 315 314 312 309 308 307 307 306 306 306 305 303 302 301 301 303 305 307
261 266 273 279 282 280 280 281 284 287 290 291 295 299 306 309 311 311 313 314 317 319 320 321 322 319 317 316 314 311 310 312 312 310 308 308 307 305 305 305 305 305 306 307
265 265 267 270 275 280 282 282 282 286 288 291 293 294 300 305 308 310 312 314 318 320 323 324 326 325 323 323 322 318 315 316 315 313 309 308 307 307 306 306 307 306 306 306
264 266 269 271 275 277 279 281 281 285 288 289 293 294 297 299 303 307 310 314 317 320 324 326 327 325 325 326 326 326 324 320 317 315 314 312 312 310 309 309 308 309 311 312
264 267 270 273 275 277 277 277 280 283 286 287 289 292 295 295 300 305 310 313 316 319 321 323 323 323 323 323 325 326 327 325 322 318 318 318 313 312 313 313 312 313 314 314
267 270 271 274 277 278 276 278 278 280 282 284 288 291 294 295 299 302 307 311 313 316 320 321 320 321 321 322 322 324 327 327 326 325 323 321 319 317 316 316 316 316 316 317
265 267 270 273 273 273 278 280 279 281 283 285 288 291 293 293 294 298 303 306 308 311 316 319 319 319 320 320 321 323 326 327 327 327 326 324 323 322 320 319 318 317 318 318
263 266 267 268 271 274 277 278 279 280 282 283 286 289 290 290 292 296 300 301 304 308 311 314 313 315 316 318 320 321 324 325 325 324 324 323 323 323 322 321 321 321 322 320
264 266 267 267 268 271 274 274 276 278 279 282 286 288 288 290 292 296 298 297 302 307 310 311 311 313 315 317 316 317 320 322 322 322 322 323 324 325 325 324 323 323 324 324
264 266 267 268 268 270 271 272 273 275 277 280 282 284 285 286 290 294 295 294 299 303 307 309 309 310 312 313 313 314 317 320 320 318 318 322 324 326 327 328 328 328 327 327
264 265 265 264 266 267 270 270 270 272 275 278 281 283 285 287 289 290 291 292 295 299 303 305 306 306 308 309 309 310 314 315 316 316 316 319 321 325 328 329 330 330 330 329
262 263 264 263 262 264 266 268 270 272 274 276 278 281 283 286 287 287 289 291 292 294 297 300 302 302 305 306 308 310 312 312 314 316 315 316 318 321 325 327 326 325 325 326
263 264 264 264 263 263 265 268 270 271 273 275 278 279 282 284 286 287 289 290 290 291 292 295 298 299 301 303 306 308 309 311 313 315 314 313 314 317 322 325 324 324 324 323
264 264 264 264 262 263 265 269 270 270 272 274 276 278 280 282 283 285 287 288 288 288 290 293 294 295 296 301 305 305 306 308 310 313 313 311 311 316 321 323 323 322 323 323
263 264 264 266 266 265 265 266 268 268 269 271 272 274 278 281 283 284 285 286 287 288 289 291 292 292 293 296 300 301 302 304 306 310 312 312 312 316 319 320 321 322 324 325
Height
5855 5856 5857 5858 5858 5858 5858 5858 5858 5857 5856 5855 5854 5853 5852 5850 5849 5847 5846 5845 5843 5841 5840 5838 5836 5834 5833 5830 5829 5826 5824 5822 5819 5817 5815 5814 5813 5812 5811 5810 5808 5807 5805 5805
5855 5856 5856 5856 5856 5856 5856 5857 5857 5856 5855 5854 5853 5851 5850 5848 5847 5845 5843 5841 5840 5838 5836 5834 5833 5831 5828 5826 5824 5822 5820 5817 5815 5813 5811 5810 5809 5807 5806 5804 5803 5801 5800 5799
5854 5855 5855 5855 5855 5855 5855 5855 5855 5854 5853 5852 5851 5850 5848 5845 5844 5842 5840 5839 5837 5835 5833 5832 5829 5827 5825 5822 5820 5818 5816 5814 5811 5809 5807 5806 5804 5803 5801 5800 5798 5796 5794 5793
5852 5853 5853 5853 5853 5853 5854 5853 5853 5852 5852 5851 5850 5849 5846 5843 5841 5840 5838 5836 5834 5832 5831 5829 5826 5824 5822 5820 5817 5814 5812 5810 5807 5805 5803 5801 5800 5798 5797 5795 5793 5791 5789 5787
5851 5851 5851 5852 5852 5852 5852 5852 5851 5850 5850 5849 5848 5847 5845 5841 5840 5838 5836 5834 5832 5830 5828 5826 5824 5822 5819 5817 5814 5812 5809 5806 5803 5801 5799 5797 5796 5794 5792 5790 5788 5786 5784 5782
5849 5850 5850 5850 5850 5850 5850 5850 5849 5849 5848 5848 5846 5845 5843 5840 5838 5836 5834 5831 5829 5827 5825 5823 5821 5819 5817 5814 5811 5808 5806 5803 5800 5797 5795 5793 5791 5789 5787 5785 5783 5781 5778 5776
5849 5848 5848 5848 5849 5848 5848 5849 5849 5849 5848 5847 5844 5842 5841 5837 5835 5833 5831 5829 5827 5825 5823 5821 5818 5816 5813 5811 5808 5805 5802 5800 5797 5794 5792 5789 5787 5785 5783 5780 5778 5775 5773 5771
5848 5849 5847 5847 5847 5847 5846 5847 5848 5847 5846 5845 5841 5839 5838 5835 5833 5831 5829 5827 5824 5822 5820 5818 5815 5813 5810 5807 5804 5802 5799 5796 5793 5791 5788 5785 5783 5780 5778 5776 5773 5771 5768 5766
5846 5846 5845 5845 5845 5845 5844 5844 5844 5844 5842 5841 5839 5837 5835 5832 5830 5828 5826 5824 5822 5819 5817 5815 5812 5809 5806 5803 5800 5798 5795 5792 5790 5787 5784 5781 5779 5776 5773 5771 5769 5766 5764 5761
5843 5843 5842 5842 5842 5842 5842 5841 5841 5841 5840 5839 5838 5835 5832 5830 5828 5826 5823 5821 5819 5817 5814 5812 5809 5806 5803 5800 5797 5794 5791 5789 5786 5783 5780 5777 5774 5772 5769 5767 5764 5762 5759 5757
5840 5840 5840 5840 5840 5840 5839 5839 5838 5837 5836 5836 5834 5835 5829 5827 5825 5823 5821 5818 5816 5814 5811 5809 5805 5802 5799 5796 5793 5790 5788 5785 5782 5779 5776 5773 5770 5768 5765 5762 5760 5757 5755 5752
5837 5837 5837 5837 5836 5836 5835 5835 5834 5834 5833 5831 5830 5831 5826 5824 5822 5820 5818 5816 5813 5811 5808 5805 5802 5799 5796 5793 5790 5787 5784 5781 5778 5775 5772 5769 5766 5763 5761 5758 5755 5753 5750 5747
5833 5834 5834 5833 5834 5833 5831 5831 5830 5830 5829 5828 5827 5828 5823 5821 5819 5817 5815 5813 5810 5808 5805 5802 5798 5795 5792 5789 5786 5783 5780 5777 5774 5771 5768 5765 5762 5759 5756 5754 5751 5748 5745 5743
5830 5830 5831 5831 5830 5828 5827 5826 5826 5826 5825 5824 5823 5822 5820 5818 5816 5814 5812 5809 5807 5804 5801 5798 5795 5792 5789 5786 5783 5780 5777 5774 5770 5767 5764 5761 5758 5755 5752 5749 5747 5744 5741 5738
5826 5826 5825 5825 5825 5824 5823 5822 5822 5822 5821 5820 5819 5818 5817 5815 5813 5810 5808 5806 5804 5801 5798 5795 5792 5789 5786 5783 5780 5777 5774 5770 5767 5764 5760 5757 5754 5751 5748 5745 5742 5739 5736 5733
5821 5822 5821 5821 5820 5819 5819 5818 5818 5817 5817 5816 5815 5814 5813 5811 5809 5807 5805 5803 5800 5798 5795 5792 5789 5786 5783 5780 5777 5774 5771 5767 5764 5760 5757 5753 5750 5747 5744 5741 5739 5736 5732 5729
5817 5817 5817 5817 5816 5815 5814 5815 5814 5813 5812 5812 5811 5810 5808 5807 5805 5803 5801 5799 5797 5794 5792 5788 5785 5783 5780 5777 5774 5771 5768 5764 5761 5757 5753 5750 5747 5744 5741 5738 5735 5732 5729 5726
5812 5812 5812 5812 5812 5810 5812 5810 5809 5808 5807 5807 5806 5805 5804 5802 5801 5799 5797 5795 5793 5791 5788 5785 5782 5779 5776 5773 5771 5768 5765 5761 5758 5754 5751 5747 5744 5741 5737 5734 5731 5728 5725 5722
5806 5807 5806 5807 5806 5805 5806 5805 5804 5803 5803 5801 5801 5800 5798 5797 5796 5794 5793 5791 5788 5786 5784 5781 5779 5776 5773 5770 5767 5765 5761 5758 5755 5752 5748 5744 5741 5738 5734 5731 5728 5725 5722 5719
5800 5800 5801 5800 5800 5800 5801 5799 5798 5799 5797 5797 5795 5794 5793 5792 5792 5790 5788 5786 5784 5782 5780 5777 5775 5772 5769 5767 5764 5761 5758 5755 5752 5748 5745 5741 5738 5734 5731 5728 5725 5722 5719 5716
5794 5794 5794 5794 5794 5794 5793 5793 5793 5794 5793 5791 5790 5789 5788 5787 5787 5785 5783 5781 5780 5778 5775 5773 5771 5768 5766 5763 5760 5758 5755 5751 5748 5745 5741 5738 5735 5731 5728 5725 5722 5719 5716 5713
5787 5787 5788 5788 5788 5789 5786 5786 5787 5787 5786 5785 5784 5783 5783 5782 5780 5779 5778 5776 5775 5773 5771 5769 5767 5764 5762 5759 5756 5754 5751 5747 5744 5741 5738 5734 5731 5728 5725 5722 5719 5716 5713 5710
5780 5781 5781 5782 5783 5781 5780 5779 5780 5779 5779 5779 5778 5778 5777 5776 5775 5774 5772 5771 5769 5768 5766 5764 5762 5760 5757 5755 5752 5749 5746 5743 5740 5737 5734 5731 5728 5725 5722 5720 5717 5713 5711 5708
5772 5773 5773 5773 5773 5774 5773 5773 5773 5773 5773 5772 5772 5771 5771 5770 5769 5768 5767 5765 5764 5762 5761 5759 5757 5755 5753 5750 5747 5744 5741 5738 5736 5733 5730 5727 5725 5722 5719 5717 5714 5711 5708 5705
5765 5765 5766 5766 5766 5766 5766 5766 5766 5766 5766 5766 5765 5765 5764 5764 5763 5762 5761 5760 5758 5757 5755 5754 5752 5750 5748 5745 5743 5740 5737 5734 5732 5729 5726 5724 5721 5719 5717 5714 5711 5708 5705 5702
5758 5758 5759 5759 5759 5759 5759 5759 5759 5759 5759 5759 5759 5758 5758 5757 5756 5756 5755 5754 5752 5751 5749 5748 5746 5744 5742 5740 5738 5735 5733 5730 5728 5725 5723 5721 5718 5716 5713 5711 5708 5705 5702 5699